Terminal Aerodrome Forecast
Issued by NWS Flagstaff, AZ

Home | Current Version | Previous Version | Text Only | Print | Product List | Glossary On
Versions: 1 2 3 4 5 6 7 8 9 10 11 12 13 14 15 16 17 18 19 20 21 22 23 24
000
FTUS45 KFGZ 020500
TAFFLG
TAF
KFLG 020531Z 0206/0306 21012G22KT 5SM -RA OVC010
      TEMPO 0215/0219 2SM -RASN
     FM021900 23015G25KT 1/2SM SN FG BKN008 OVC015=

USA.gov is the U.S. government's official web portal to all federal, state and local government web resources and services.